Location: Bush Observatory
(40.2653°N, 94.3194°W)
Time: 16:30:47
(UTC-05:00)

FO-29 - Visible Passes

Search period start: 21 August 2017 00:00
Search period end: 31 August 2017 00:00
Orbit: 800 x 1322 km, 98.6° (Epoch: 21 August)

Date Brightness Start Highest point End Pass type
(mag) Time Alt. Az. Time Alt. Az. Time Alt. Az.
21 Aug 9.3 22:33:33 10° NNE 22:38:25 57° ENE 22:38:25 57° ENE visible
22 Aug 11.5 00:20:05 10° NNW 00:23:30 17° WNW 00:24:53 15° WNW visible
22 Aug 10.7 21:39:42 10° NE 21:42:29 18° ENE 21:42:29 18° ENE visible
22 Aug 9.9 23:23:43 10° N 23:28:57 47° WNW 23:28:57 47° WNW visible
23 Aug 9.5 22:28:35 10° NNE 22:33:00 48° ENE 22:33:00 48° ENE visible
24 Aug 11.4 00:14:57 10° NNW 00:18:31 18° WNW 00:19:28 17° WNW visible
24 Aug 10.8 21:34:56 10° NE 21:37:04 16° ENE 21:37:04 16° ENE visible
24 Aug 9.8 23:18:42 10° N 23:23:32 50° NW 23:23:32 50° NW visible
25 Aug 9.7 22:23:38 10° NNE 22:27:36 41° ENE 22:27:36 41° ENE visible
26 Aug 11.3 00:09:50 10° NNW 00:13:32 19° WNW 00:14:03 19° WNW visible
26 Aug 11.0 21:30:11 10° NE 21:31:39 14° ENE 21:31:39 14° ENE visible
26 Aug 9.8 23:13:39 10° N 23:18:07 50° NW 23:18:07 50° NW visible
27 Aug 10.0 22:18:40 10° NNE 22:22:11 35° NE 22:22:11 35° NE visible
28 Aug 11.2 00:04:41 10° NNW 00:08:32 21° WNW 00:08:39 21° WNW visible
28 Aug 11.1 21:25:28 10° ENE 21:26:14 12° ENE 21:26:14 12° ENE visible
28 Aug 9.9 23:08:37 10° N 23:12:42 49° NNW 23:12:42 49° NNW visible
29 Aug 10.2 22:13:42 10° NNE 22:16:46 30° NE 22:16:46 30° NE visible
29 Aug 11.2 23:59:32 10° NNW 00:03:14 22° WNW 00:03:14 22° WNW visible
30 Aug 11.2 21:20:49 10° ENE 21:20:49 10° ENE 21:20:49 10° ENE visible
30 Aug 10.0 23:03:34 10° N 23:07:17 45° N 23:07:17 45° N visible
